Index of /20260507/WXO-DD/model_rdps/10km/18/039
Name Last modified Size Description
Parent Directory -
20260506T18Z_MSC_RDPS_AbsoluteVorticity_IsbL-0250_RLatLon0.09_PT039H.grib2 2026-05-07 02:57 590K
20260506T18Z_MSC_RDPS_AbsoluteVorticity_IsbL-0500_RLatLon0.09_PT039H.grib2 2026-05-07 02:57 557K
20260506T18Z_MSC_RDPS_AbsoluteVorticity_IsbL-0700_RLatLon0.09_PT039H.grib2 2026-05-07 02:57 753K
20260506T18Z_MSC_RDPS_AbsoluteVorticity_IsbL-0850_RLatLon0.09_PT039H.grib2 2026-05-07 02:57 786K
20260506T18Z_MSC_RDPS_AirTemp_AGL-120m_RLatLon0.09_PT039H.grib2 2026-05-07 02:57 379K
20260506T18Z_MSC_RDPS_AirTemp_AGL-2m_RLatLon0.09_PT039H.grib2 2026-05-07 02:57 635K
20260506T18Z_MSC_RDPS_AirTemp_AGL-40m_RLatLon0.09_PT039H.grib2 2026-05-07 02:57 398K
20260506T18Z_MSC_RDPS_AirTemp_AGL-80m_RLatLon0.09_PT039H.grib2 2026-05-07 02:57 388K
20260506T18Z_MSC_RDPS_AirTemp_IsbL-0001_RLatLon0.09_PT039H.grib2 2026-05-07 02:57 300K
20260506T18Z_MSC_RDPS_AirTemp_IsbL-0005_RLatLon0.09_PT039H.grib2 2026-05-07 02:57 375K
20260506T18Z_MSC_RDPS_AirTemp_IsbL-0010_RLatLon0.09_PT039H.grib2 2026-05-07 02:57 390K
20260506T18Z_MSC_RDPS_AirTemp_IsbL-0020_RLatLon0.09_PT039H.grib2 2026-05-07 02:57 318K
20260506T18Z_MSC_RDPS_AirTemp_IsbL-0030_RLatLon0.09_PT039H.grib2 2026-05-07 02:57 339K
20260506T18Z_MSC_RDPS_AirTemp_IsbL-0050_RLatLon0.09_PT039H.grib2 2026-05-07 02:57 312K
20260506T18Z_MSC_RDPS_AirTemp_IsbL-0100_RLatLon0.09_PT039H.grib2 2026-05-07 02:57 422K
20260506T18Z_MSC_RDPS_AirTemp_IsbL-0150_RLatLon0.09_PT039H.grib2 2026-05-07 02:57 403K
20260506T18Z_MSC_RDPS_AirTemp_IsbL-0175_RLatLon0.09_PT039H.grib2 2026-05-07 02:57 397K
20260506T18Z_MSC_RDPS_AirTemp_IsbL-0200_RLatLon0.09_PT039H.grib2 2026-05-07 02:57 404K
20260506T18Z_MSC_RDPS_AirTemp_IsbL-0225_RLatLon0.09_PT039H.grib2 2026-05-07 02:57 406K
20260506T18Z_MSC_RDPS_AirTemp_IsbL-0250_RLatLon0.09_PT039H.grib2 2026-05-07 02:57 413K
20260506T18Z_MSC_RDPS_AirTemp_IsbL-0275_RLatLon0.09_PT039H.grib2 2026-05-07 02:57 396K
20260506T18Z_MSC_RDPS_AirTemp_IsbL-0300_RLatLon0.09_PT039H.grib2 2026-05-07 02:57 427K
20260506T18Z_MSC_RDPS_AirTemp_IsbL-0350_RLatLon0.09_PT039H.grib2 2026-05-07 02:57 415K
20260506T18Z_MSC_RDPS_AirTemp_IsbL-0400_RLatLon0.09_PT039H.grib2 2026-05-07 02:57 418K
20260506T18Z_MSC_RDPS_AirTemp_IsbL-0450_RLatLon0.09_PT039H.grib2 2026-05-07 02:57 427K
20260506T18Z_MSC_RDPS_AirTemp_IsbL-0500_RLatLon0.09_PT039H.grib2 2026-05-07 02:57 403K
20260506T18Z_MSC_RDPS_AirTemp_IsbL-0550_RLatLon0.09_PT039H.grib2 2026-05-07 02:57 419K
20260506T18Z_MSC_RDPS_AirTemp_IsbL-0600_RLatLon0.09_PT039H.grib2 2026-05-07 02:57 435K
20260506T18Z_MSC_RDPS_AirTemp_IsbL-0650_RLatLon0.09_PT039H.grib2 2026-05-07 02:57 448K
20260506T18Z_MSC_RDPS_AirTemp_IsbL-0700_RLatLon0.09_PT039H.grib2 2026-05-07 02:57 475K
20260506T18Z_MSC_RDPS_AirTemp_IsbL-0750_RLatLon0.09_PT039H.grib2 2026-05-07 02:57 517K
20260506T18Z_MSC_RDPS_AirTemp_IsbL-0800_RLatLon0.09_PT039H.grib2 2026-05-07 02:57 572K
20260506T18Z_MSC_RDPS_AirTemp_IsbL-0850_RLatLon0.09_PT039H.grib2 2026-05-07 02:57 630K
20260506T18Z_MSC_RDPS_AirTemp_IsbL-0875_RLatLon0.09_PT039H.grib2 2026-05-07 02:57 651K
20260506T18Z_MSC_RDPS_AirTemp_IsbL-0900_RLatLon0.09_PT039H.grib2 2026-05-07 02:57 661K
20260506T18Z_MSC_RDPS_AirTemp_IsbL-0925_RLatLon0.09_PT039H.grib2 2026-05-07 02:57 663K
20260506T18Z_MSC_RDPS_AirTemp_IsbL-0950_RLatLon0.09_PT039H.grib2 2026-05-07 02:57 530K
20260506T18Z_MSC_RDPS_AirTemp_IsbL-0970_RLatLon0.09_PT039H.grib2 2026-05-07 02:57 524K
20260506T18Z_MSC_RDPS_AirTemp_IsbL-0985_RLatLon0.09_PT039H.grib2 2026-05-07 02:57 511K
20260506T18Z_MSC_RDPS_AirTemp_IsbL-1000_RLatLon0.09_PT039H.grib2 2026-05-07 02:57 499K
20260506T18Z_MSC_RDPS_AirTemp_IsbL-1015_RLatLon0.09_PT039H.grib2 2026-05-07 02:57 497K
20260506T18Z_MSC_RDPS_Albedo_Sfc_RLatLon0.09_PT039H.grib2 2026-05-07 02:57 159K
20260506T18Z_MSC_RDPS_CAPE_Sfc_RLatLon0.09_PT039H.grib2 2026-05-07 02:57 1.6M
20260506T18Z_MSC_RDPS_CIN_Sfc_RLatLon0.09_PT039H.grib2 2026-05-07 02:57 1.1M
20260506T18Z_MSC_RDPS_CloudWater_EAtm_RLatLon0.09_PT039H.grib2 2026-05-07 02:57 224K
20260506T18Z_MSC_RDPS_ConvectivePrecip-Accum_Sfc_RLatLon0.09_PT039H.grib2 2026-05-07 02:57 1.0M
20260506T18Z_MSC_RDPS_DewPointDepression_AGL-2m_RLatLon0.09_PT039H.grib2 2026-05-07 02:57 403K
20260506T18Z_MSC_RDPS_DewPointDepression_IsbL-0001_RLatLon0.09_PT039H.grib2 2026-05-07 02:57 193
20260506T18Z_MSC_RDPS_DewPointDepression_IsbL-0005_RLatLon0.09_PT039H.grib2 2026-05-07 02:57 193
20260506T18Z_MSC_RDPS_DewPointDepression_IsbL-0010_RLatLon0.09_PT039H.grib2 2026-05-07 02:57 193
20260506T18Z_MSC_RDPS_DewPointDepression_IsbL-0020_RLatLon0.09_PT039H.grib2 2026-05-07 02:57 193
20260506T18Z_MSC_RDPS_DewPointDepression_IsbL-0030_RLatLon0.09_PT039H.grib2 2026-05-07 02:57 193
20260506T18Z_MSC_RDPS_DewPointDepression_IsbL-0050_RLatLon0.09_PT039H.grib2 2026-05-07 02:57 84K
20260506T18Z_MSC_RDPS_DewPointDepression_IsbL-0100_RLatLon0.09_PT039H.grib2 2026-05-07 02:57 109K
20260506T18Z_MSC_RDPS_DewPointDepression_IsbL-0150_RLatLon0.09_PT039H.grib2 2026-05-07 02:57 133K
20260506T18Z_MSC_RDPS_DewPointDepression_IsbL-0175_RLatLon0.09_PT039H.grib2 2026-05-07 02:57 167K
20260506T18Z_MSC_RDPS_DewPointDepression_IsbL-0200_RLatLon0.09_PT039H.grib2 2026-05-07 02:57 212K
20260506T18Z_MSC_RDPS_DewPointDepression_IsbL-0225_RLatLon0.09_PT039H.grib2 2026-05-07 02:57 246K
20260506T18Z_MSC_RDPS_DewPointDepression_IsbL-0250_RLatLon0.09_PT039H.grib2 2026-05-07 02:57 295K
20260506T18Z_MSC_RDPS_DewPointDepression_IsbL-0275_RLatLon0.09_PT039H.grib2 2026-05-07 02:57 305K
20260506T18Z_MSC_RDPS_DewPointDepression_IsbL-0300_RLatLon0.09_PT039H.grib2 2026-05-07 02:57 320K
20260506T18Z_MSC_RDPS_DewPointDepression_IsbL-0350_RLatLon0.09_PT039H.grib2 2026-05-07 02:57 322K
20260506T18Z_MSC_RDPS_DewPointDepression_IsbL-0400_RLatLon0.09_PT039H.grib2 2026-05-07 02:57 324K
20260506T18Z_MSC_RDPS_DewPointDepression_IsbL-0450_RLatLon0.09_PT039H.grib2 2026-05-07 02:57 332K
20260506T18Z_MSC_RDPS_DewPointDepression_IsbL-0500_RLatLon0.09_PT039H.grib2 2026-05-07 02:57 339K
20260506T18Z_MSC_RDPS_DewPointDepression_IsbL-0550_RLatLon0.09_PT039H.grib2 2026-05-07 02:57 352K
20260506T18Z_MSC_RDPS_DewPointDepression_IsbL-0600_RLatLon0.09_PT039H.grib2 2026-05-07 02:57 367K
20260506T18Z_MSC_RDPS_DewPointDepression_IsbL-0650_RLatLon0.09_PT039H.grib2 2026-05-07 02:57 373K
20260506T18Z_MSC_RDPS_DewPointDepression_IsbL-0700_RLatLon0.09_PT039H.grib2 2026-05-07 02:57 384K
20260506T18Z_MSC_RDPS_DewPointDepression_IsbL-0750_RLatLon0.09_PT039H.grib2 2026-05-07 02:57 408K
20260506T18Z_MSC_RDPS_DewPointDepression_IsbL-0800_RLatLon0.09_PT039H.grib2 2026-05-07 02:57 448K
20260506T18Z_MSC_RDPS_DewPointDepression_IsbL-0850_RLatLon0.09_PT039H.grib2 2026-05-07 02:57 485K
20260506T18Z_MSC_RDPS_DewPointDepression_IsbL-0875_RLatLon0.09_PT039H.grib2 2026-05-07 02:57 481K
20260506T18Z_MSC_RDPS_DewPointDepression_IsbL-0900_RLatLon0.09_PT039H.grib2 2026-05-07 02:57 466K
20260506T18Z_MSC_RDPS_DewPointDepression_IsbL-0925_RLatLon0.09_PT039H.grib2 2026-05-07 02:57 452K
20260506T18Z_MSC_RDPS_DewPointDepression_IsbL-0950_RLatLon0.09_PT039H.grib2 2026-05-07 02:57 444K
20260506T18Z_MSC_RDPS_DewPointDepression_IsbL-0970_RLatLon0.09_PT039H.grib2 2026-05-07 02:57 440K
20260506T18Z_MSC_RDPS_DewPointDepression_IsbL-0985_RLatLon0.09_PT039H.grib2 2026-05-07 02:57 436K
20260506T18Z_MSC_RDPS_DewPointDepression_IsbL-1000_RLatLon0.09_PT039H.grib2 2026-05-07 02:57 433K
20260506T18Z_MSC_RDPS_DewPointDepression_IsbL-1015_RLatLon0.09_PT039H.grib2 2026-05-07 02:57 422K
20260506T18Z_MSC_RDPS_DewPoint_AGL-2m_RLatLon0.09_PT039H.grib2 2026-05-07 02:57 402K
20260506T18Z_MSC_RDPS_DownwardLongwaveRadiationFlux-Accum_Sfc_RLatLon0.09_PT039H.grib2 2026-05-07 02:57 385K
20260506T18Z_MSC_RDPS_DownwardShortwaveRadiationFlux-Accum_NTAtm_RLatLon0.09_PT039H.grib2 2026-05-07 02:57 136K
20260506T18Z_MSC_RDPS_DownwardShortwaveRadiationFlux-Accum_Sfc_RLatLon0.09_PT039H.grib2 2026-05-07 02:57 534K
20260506T18Z_MSC_RDPS_FreezingRain-Accum1h_Sfc_RLatLon0.09_PT039H.grib2 2026-05-07 02:57 41K
20260506T18Z_MSC_RDPS_FreezingRain-Accum3h_Sfc_RLatLon0.09_PT039H.grib2 2026-05-07 02:57 46K
20260506T18Z_MSC_RDPS_FreezingRain-Accum_Sfc_RLatLon0.09_PT039H.grib2 2026-05-07 02:57 160K
20260506T18Z_MSC_RDPS_GeopotentialHeight_IsbL-0001_RLatLon0.09_PT039H.grib2 2026-05-07 02:57 238K
20260506T18Z_MSC_RDPS_GeopotentialHeight_IsbL-0005_RLatLon0.09_PT039H.grib2 2026-05-07 02:57 337K
20260506T18Z_MSC_RDPS_GeopotentialHeight_IsbL-0010_RLatLon0.09_PT039H.grib2 2026-05-07 02:57 339K
20260506T18Z_MSC_RDPS_GeopotentialHeight_IsbL-0020_RLatLon0.09_PT039H.grib2 2026-05-07 02:57 305K
20260506T18Z_MSC_RDPS_GeopotentialHeight_IsbL-0030_RLatLon0.09_PT039H.grib2 2026-05-07 02:57 307K
20260506T18Z_MSC_RDPS_GeopotentialHeight_IsbL-0050_RLatLon0.09_PT039H.grib2 2026-05-07 02:57 308K
20260506T18Z_MSC_RDPS_GeopotentialHeight_IsbL-0100_RLatLon0.09_PT039H.grib2 2026-05-07 02:57 283K
20260506T18Z_MSC_RDPS_GeopotentialHeight_IsbL-0150_RLatLon0.09_PT039H.grib2 2026-05-07 02:57 225K
20260506T18Z_MSC_RDPS_GeopotentialHeight_IsbL-0175_RLatLon0.09_PT039H.grib2 2026-05-07 02:57 228K
20260506T18Z_MSC_RDPS_GeopotentialHeight_IsbL-0200_RLatLon0.09_PT039H.grib2 2026-05-07 02:57 262K
20260506T18Z_MSC_RDPS_GeopotentialHeight_IsbL-0225_RLatLon0.09_PT039H.grib2 2026-05-07 02:57 263K
20260506T18Z_MSC_RDPS_GeopotentialHeight_IsbL-0250_RLatLon0.09_PT039H.grib2 2026-05-07 02:57 265K
20260506T18Z_MSC_RDPS_GeopotentialHeight_IsbL-0275_RLatLon0.09_PT039H.grib2 2026-05-07 02:57 264K
20260506T18Z_MSC_RDPS_GeopotentialHeight_IsbL-0300_RLatLon0.09_PT039H.grib2 2026-05-07 02:57 263K
20260506T18Z_MSC_RDPS_GeopotentialHeight_IsbL-0350_RLatLon0.09_PT039H.grib2 2026-05-07 02:57 230K
20260506T18Z_MSC_RDPS_GeopotentialHeight_IsbL-0400_RLatLon0.09_PT039H.grib2 2026-05-07 02:57 226K
20260506T18Z_MSC_RDPS_GeopotentialHeight_IsbL-0450_RLatLon0.09_PT039H.grib2 2026-05-07 02:57 292K
20260506T18Z_MSC_RDPS_GeopotentialHeight_IsbL-0500_RLatLon0.09_PT039H.grib2 2026-05-07 02:57 287K
20260506T18Z_MSC_RDPS_GeopotentialHeight_IsbL-0550_RLatLon0.09_PT039H.grib2 2026-05-07 02:57 283K
20260506T18Z_MSC_RDPS_GeopotentialHeight_IsbL-0600_RLatLon0.09_PT039H.grib2 2026-05-07 02:57 280K
20260506T18Z_MSC_RDPS_GeopotentialHeight_IsbL-0650_RLatLon0.09_PT039H.grib2 2026-05-07 02:57 249K
20260506T18Z_MSC_RDPS_GeopotentialHeight_IsbL-0700_RLatLon0.09_PT039H.grib2 2026-05-07 02:57 330K
20260506T18Z_MSC_RDPS_GeopotentialHeight_IsbL-0750_RLatLon0.09_PT039H.grib2 2026-05-07 02:57 332K
20260506T18Z_MSC_RDPS_GeopotentialHeight_IsbL-0800_RLatLon0.09_PT039H.grib2 2026-05-07 02:57 341K
20260506T18Z_MSC_RDPS_GeopotentialHeight_IsbL-0850_RLatLon0.09_PT039H.grib2 2026-05-07 02:57 386K
20260506T18Z_MSC_RDPS_GeopotentialHeight_IsbL-0875_RLatLon0.09_PT039H.grib2 2026-05-07 02:57 388K
20260506T18Z_MSC_RDPS_GeopotentialHeight_IsbL-0900_RLatLon0.09_PT039H.grib2 2026-05-07 02:57 391K
20260506T18Z_MSC_RDPS_GeopotentialHeight_IsbL-0925_RLatLon0.09_PT039H.grib2 2026-05-07 02:57 394K
20260506T18Z_MSC_RDPS_GeopotentialHeight_IsbL-0950_RLatLon0.09_PT039H.grib2 2026-05-07 02:57 397K
20260506T18Z_MSC_RDPS_GeopotentialHeight_IsbL-0970_RLatLon0.09_PT039H.grib2 2026-05-07 02:57 402K
20260506T18Z_MSC_RDPS_GeopotentialHeight_IsbL-0985_RLatLon0.09_PT039H.grib2 2026-05-07 02:57 411K
20260506T18Z_MSC_RDPS_GeopotentialHeight_IsbL-1000_RLatLon0.09_PT039H.grib2 2026-05-07 02:57 424K
20260506T18Z_MSC_RDPS_GeopotentialHeight_IsbL-1015_RLatLon0.09_PT039H.grib2 2026-05-07 02:57 441K
20260506T18Z_MSC_RDPS_Humidex_Sfc_RLatLon0.09_PT039H.grib2 2026-05-07 02:57 2.4M
20260506T18Z_MSC_RDPS_IcePellets-Accum1h_Sfc_RLatLon0.09_PT039H.grib2 2026-05-07 02:57 6.6K
20260506T18Z_MSC_RDPS_IcePellets-Accum3h_Sfc_RLatLon0.09_PT039H.grib2 2026-05-07 02:57 7.0K
20260506T18Z_MSC_RDPS_IcePellets-Accum_Sfc_RLatLon0.09_PT039H.grib2 2026-05-07 02:57 23K
20260506T18Z_MSC_RDPS_KIndex_Sfc_RLatLon0.09_PT039H.grib2 2026-05-07 02:57 2.5M
20260506T18Z_MSC_RDPS_LatentHeatNetFlux_Sfc_RLatLon0.09_PT039H.grib2 2026-05-07 02:57 314K
20260506T18Z_MSC_RDPS_LiftedIndex-MU-VT_IsbL-0500_RLatLon0.09_PT039H.grib2 2026-05-07 02:57 2.4M
20260506T18Z_MSC_RDPS_NetLongwaveRadiationFlux-Accum_Sfc_RLatLon0.09_PT039H.grib2 2026-05-07 02:57 518K
20260506T18Z_MSC_RDPS_NetShortwaveRadiationFlux-Accum_Sfc_RLatLon0.09_PT039H.grib2 2026-05-07 02:57 530K
20260506T18Z_MSC_RDPS_PlanetaryBoundaryLayerHeight_Sfc_RLatLon0.09_PT039H.grib2 2026-05-07 02:57 1.0M
20260506T18Z_MSC_RDPS_Precip-Accum1h_Sfc_RLatLon0.09_PT039H.grib2 2026-05-07 02:57 1.3M
20260506T18Z_MSC_RDPS_Precip-Accum3h_Sfc_RLatLon0.09_PT039H.grib2 2026-05-07 02:57 1.4M
20260506T18Z_MSC_RDPS_Precip-Accum_Sfc_RLatLon0.09_PT039H.grib2 2026-05-07 02:57 2.0M
20260506T18Z_MSC_RDPS_PrecipRate_Sfc_RLatLon0.09_PT039H.grib2 2026-05-07 02:57 175K
20260506T18Z_MSC_RDPS_PrecipType-Instant_Sfc_RLatLon0.09_PT039H.grib2 2026-05-07 02:57 596K
20260506T18Z_MSC_RDPS_Pressure-Trend3h_Sfc_RLatLon0.09_PT039H.grib2 2026-05-07 02:57 1.2M
20260506T18Z_MSC_RDPS_Pressure_MSL_RLatLon0.09_PT039H.grib2 2026-05-07 02:57 321K
20260506T18Z_MSC_RDPS_Pressure_PVU-1.5_RLatLon0.09_PT039H.grib2 2026-05-07 02:57 2.5M
20260506T18Z_MSC_RDPS_Pressure_PVU-1_RLatLon0.09_PT039H.grib2 2026-05-07 02:57 2.4M
20260506T18Z_MSC_RDPS_Pressure_PVU-2_RLatLon0.09_PT039H.grib2 2026-05-07 02:57 2.4M
20260506T18Z_MSC_RDPS_Pressure_Sfc_RLatLon0.09_PT039H.grib2 2026-05-07 02:57 499K
20260506T18Z_MSC_RDPS_RadiativeTemp_Sfc_RLatLon0.09_PT039H.grib2 2026-05-07 02:57 309K
20260506T18Z_MSC_RDPS_Rain-Accum1h_Sfc_RLatLon0.09_PT039H.grib2 2026-05-07 02:57 641K
20260506T18Z_MSC_RDPS_Rain-Accum3h_Sfc_RLatLon0.09_PT039H.grib2 2026-05-07 02:57 717K
20260506T18Z_MSC_RDPS_Rain-Accum_Sfc_RLatLon0.09_PT039H.grib2 2026-05-07 02:57 1.6M
20260506T18Z_MSC_RDPS_RelativeHumidity_AGL-2m_RLatLon0.09_PT039H.grib2 2026-05-07 02:57 1.0M
20260506T18Z_MSC_RDPS_RelativeHumidity_IsbL-0010_RLatLon0.09_PT039H.grib2 2026-05-07 02:57 746K
20260506T18Z_MSC_RDPS_RelativeHumidity_IsbL-0020_RLatLon0.09_PT039H.grib2 2026-05-07 02:57 655K
20260506T18Z_MSC_RDPS_RelativeHumidity_IsbL-0030_RLatLon0.09_PT039H.grib2 2026-05-07 02:57 640K
20260506T18Z_MSC_RDPS_RelativeHumidity_IsbL-0050_RLatLon0.09_PT039H.grib2 2026-05-07 02:57 360K
20260506T18Z_MSC_RDPS_RelativeHumidity_IsbL-0100_RLatLon0.09_PT039H.grib2 2026-05-07 02:57 275K
20260506T18Z_MSC_RDPS_RelativeHumidity_IsbL-0150_RLatLon0.09_PT039H.grib2 2026-05-07 02:57 399K
20260506T18Z_MSC_RDPS_RelativeHumidity_IsbL-0175_RLatLon0.09_PT039H.grib2 2026-05-07 02:57 453K
20260506T18Z_MSC_RDPS_RelativeHumidity_IsbL-0200_RLatLon0.09_PT039H.grib2 2026-05-07 02:57 528K
20260506T18Z_MSC_RDPS_RelativeHumidity_IsbL-0225_RLatLon0.09_PT039H.grib2 2026-05-07 02:57 596K
20260506T18Z_MSC_RDPS_RelativeHumidity_IsbL-0250_RLatLon0.09_PT039H.grib2 2026-05-07 02:57 663K
20260506T18Z_MSC_RDPS_RelativeHumidity_IsbL-0275_RLatLon0.09_PT039H.grib2 2026-05-07 02:57 691K
20260506T18Z_MSC_RDPS_RelativeHumidity_IsbL-0300_RLatLon0.09_PT039H.grib2 2026-05-07 02:57 734K
20260506T18Z_MSC_RDPS_RelativeHumidity_IsbL-0350_RLatLon0.09_PT039H.grib2 2026-05-07 02:57 752K
20260506T18Z_MSC_RDPS_RelativeHumidity_IsbL-0400_RLatLon0.09_PT039H.grib2 2026-05-07 02:57 767K
20260506T18Z_MSC_RDPS_RelativeHumidity_IsbL-0450_RLatLon0.09_PT039H.grib2 2026-05-07 02:57 777K
20260506T18Z_MSC_RDPS_RelativeHumidity_IsbL-0500_RLatLon0.09_PT039H.grib2 2026-05-07 02:57 788K
20260506T18Z_MSC_RDPS_RelativeHumidity_IsbL-0550_RLatLon0.09_PT039H.grib2 2026-05-07 02:57 810K
20260506T18Z_MSC_RDPS_RelativeHumidity_IsbL-0600_RLatLon0.09_PT039H.grib2 2026-05-07 02:57 833K
20260506T18Z_MSC_RDPS_RelativeHumidity_IsbL-0650_RLatLon0.09_PT039H.grib2 2026-05-07 02:57 846K
20260506T18Z_MSC_RDPS_RelativeHumidity_IsbL-0700_RLatLon0.09_PT039H.grib2 2026-05-07 02:57 879K
20260506T18Z_MSC_RDPS_RelativeHumidity_IsbL-0750_RLatLon0.09_PT039H.grib2 2026-05-07 02:57 923K
20260506T18Z_MSC_RDPS_RelativeHumidity_IsbL-0800_RLatLon0.09_PT039H.grib2 2026-05-07 02:57 1.0M
20260506T18Z_MSC_RDPS_RelativeHumidity_IsbL-0850_RLatLon0.09_PT039H.grib2 2026-05-07 02:57 1.0M
20260506T18Z_MSC_RDPS_RelativeHumidity_IsbL-0875_RLatLon0.09_PT039H.grib2 2026-05-07 02:57 1.1M
20260506T18Z_MSC_RDPS_RelativeHumidity_IsbL-0900_RLatLon0.09_PT039H.grib2 2026-05-07 02:57 1.1M
20260506T18Z_MSC_RDPS_RelativeHumidity_IsbL-0925_RLatLon0.09_PT039H.grib2 2026-05-07 02:57 1.1M
20260506T18Z_MSC_RDPS_RelativeHumidity_IsbL-0950_RLatLon0.09_PT039H.grib2 2026-05-07 02:57 1.1M
20260506T18Z_MSC_RDPS_RelativeHumidity_IsbL-0970_RLatLon0.09_PT039H.grib2 2026-05-07 02:57 1.1M
20260506T18Z_MSC_RDPS_RelativeHumidity_IsbL-0985_RLatLon0.09_PT039H.grib2 2026-05-07 02:57 1.0M
20260506T18Z_MSC_RDPS_RelativeHumidity_IsbL-1000_RLatLon0.09_PT039H.grib2 2026-05-07 02:57 1.0M
20260506T18Z_MSC_RDPS_RelativeHumidity_IsbL-1015_RLatLon0.09_PT039H.grib2 2026-05-07 02:57 1.0M
20260506T18Z_MSC_RDPS_Runoff-Accum_Sfc_RLatLon0.09_PT039H.grib2 2026-05-07 02:57 70K
20260506T18Z_MSC_RDPS_SWEATIndex_Sfc_RLatLon0.09_PT039H.grib2 2026-05-07 02:57 2.4M
20260506T18Z_MSC_RDPS_SeeingIndex_EAtm_RLatLon0.09_PT039H.grib2 2026-05-07 02:57 1.0M
20260506T18Z_MSC_RDPS_SensibleHeatNetFlux_Sfc_RLatLon0.09_PT039H.grib2 2026-05-07 02:57 212K
20260506T18Z_MSC_RDPS_ShowalterIndex_IsbL-0500_RLatLon0.09_PT039H.grib2 2026-05-07 02:57 2.6M
20260506T18Z_MSC_RDPS_SkyTransparencyIndex_EAtm_RLatLon0.09_PT039H.grib2 2026-05-07 02:57 725K
20260506T18Z_MSC_RDPS_Snow-Accum1h_Sfc_RLatLon0.09_PT039H.grib2 2026-05-07 02:57 503K
20260506T18Z_MSC_RDPS_Snow-Accum3h_Sfc_RLatLon0.09_PT039H.grib2 2026-05-07 02:57 498K
20260506T18Z_MSC_RDPS_Snow-Accum_Sfc_RLatLon0.09_PT039H.grib2 2026-05-07 02:57 707K
20260506T18Z_MSC_RDPS_SnowDensity_Sfc_RLatLon0.09_PT039H.grib2 2026-05-07 02:57 174K
20260506T18Z_MSC_RDPS_SnowDepth_Sfc_RLatLon0.09_PT039H.grib2 2026-05-07 02:57 635K
20260506T18Z_MSC_RDPS_SoilTemp_DBS-0to10cm_RLatLon0.09_PT039H.grib2 2026-05-07 02:57 234K
20260506T18Z_MSC_RDPS_SoilTemp_Sfc_RLatLon0.09_PT039H.grib2 2026-05-07 02:57 285K
20260506T18Z_MSC_RDPS_SoilVolumetricIceContent_Sfc_RLatLon0.09_PT039H.grib2 2026-05-07 02:57 147K
20260506T18Z_MSC_RDPS_SoilVolumetricWaterContent_DBS-0to10cm_RLatLon0.09_PT039H.grib2 2026-05-07 02:57 285K
20260506T18Z_MSC_RDPS_SoilVolumetricWaterContent_DBS-0to1cm_RLatLon0.09_PT039H.grib2 2026-05-07 02:57 342K
20260506T18Z_MSC_RDPS_SpecificHumidity_AGL-120m_RLatLon0.09_PT039H.grib2 2026-05-07 02:57 504K
20260506T18Z_MSC_RDPS_SpecificHumidity_AGL-2m_RLatLon0.09_PT039H.grib2 2026-05-07 02:57 674K
20260506T18Z_MSC_RDPS_SpecificHumidity_AGL-40m_RLatLon0.09_PT039H.grib2 2026-05-07 02:57 510K
20260506T18Z_MSC_RDPS_SpecificHumidity_AGL-80m_RLatLon0.09_PT039H.grib2 2026-05-07 02:57 506K
20260506T18Z_MSC_RDPS_SpecificHumidity_IsbL-0001_RLatLon0.09_PT039H.grib2 2026-05-07 02:57 406K
20260506T18Z_MSC_RDPS_SpecificHumidity_IsbL-0005_RLatLon0.09_PT039H.grib2 2026-05-07 02:57 376K
20260506T18Z_MSC_RDPS_SpecificHumidity_IsbL-0010_RLatLon0.09_PT039H.grib2 2026-05-07 02:57 410K
20260506T18Z_MSC_RDPS_SpecificHumidity_IsbL-0020_RLatLon0.09_PT039H.grib2 2026-05-07 02:57 386K
20260506T18Z_MSC_RDPS_SpecificHumidity_IsbL-0030_RLatLon0.09_PT039H.grib2 2026-05-07 02:57 373K
20260506T18Z_MSC_RDPS_SpecificHumidity_IsbL-0050_RLatLon0.09_PT039H.grib2 2026-05-07 02:57 481K
20260506T18Z_MSC_RDPS_SpecificHumidity_IsbL-0100_RLatLon0.09_PT039H.grib2 2026-05-07 02:57 415K
20260506T18Z_MSC_RDPS_SpecificHumidity_IsbL-0150_RLatLon0.09_PT039H.grib2 2026-05-07 02:57 443K
20260506T18Z_MSC_RDPS_SpecificHumidity_IsbL-0175_RLatLon0.09_PT039H.grib2 2026-05-07 02:57 424K
20260506T18Z_MSC_RDPS_SpecificHumidity_IsbL-0200_RLatLon0.09_PT039H.grib2 2026-05-07 02:57 458K
20260506T18Z_MSC_RDPS_SpecificHumidity_IsbL-0225_RLatLon0.09_PT039H.grib2 2026-05-07 02:57 459K
20260506T18Z_MSC_RDPS_SpecificHumidity_IsbL-0250_RLatLon0.09_PT039H.grib2 2026-05-07 02:57 504K
20260506T18Z_MSC_RDPS_SpecificHumidity_IsbL-0275_RLatLon0.09_PT039H.grib2 2026-05-07 02:57 465K
20260506T18Z_MSC_RDPS_SpecificHumidity_IsbL-0300_RLatLon0.09_PT039H.grib2 2026-05-07 02:57 437K
20260506T18Z_MSC_RDPS_SpecificHumidity_IsbL-0350_RLatLon0.09_PT039H.grib2 2026-05-07 02:57 429K
20260506T18Z_MSC_RDPS_SpecificHumidity_IsbL-0400_RLatLon0.09_PT039H.grib2 2026-05-07 02:57 507K
20260506T18Z_MSC_RDPS_SpecificHumidity_IsbL-0450_RLatLon0.09_PT039H.grib2 2026-05-07 02:57 562K
20260506T18Z_MSC_RDPS_SpecificHumidity_IsbL-0500_RLatLon0.09_PT039H.grib2 2026-05-07 02:57 499K
20260506T18Z_MSC_RDPS_SpecificHumidity_IsbL-0550_RLatLon0.09_PT039H.grib2 2026-05-07 02:57 574K
20260506T18Z_MSC_RDPS_SpecificHumidity_IsbL-0600_RLatLon0.09_PT039H.grib2 2026-05-07 02:57 630K
20260506T18Z_MSC_RDPS_SpecificHumidity_IsbL-0650_RLatLon0.09_PT039H.grib2 2026-05-07 02:57 549K
20260506T18Z_MSC_RDPS_SpecificHumidity_IsbL-0700_RLatLon0.09_PT039H.grib2 2026-05-07 02:57 593K
20260506T18Z_MSC_RDPS_SpecificHumidity_IsbL-0750_RLatLon0.09_PT039H.grib2 2026-05-07 02:57 652K
20260506T18Z_MSC_RDPS_SpecificHumidity_IsbL-0800_RLatLon0.09_PT039H.grib2 2026-05-07 02:57 741K
20260506T18Z_MSC_RDPS_SpecificHumidity_IsbL-0850_RLatLon0.09_PT039H.grib2 2026-05-07 02:57 822K
20260506T18Z_MSC_RDPS_SpecificHumidity_IsbL-0875_RLatLon0.09_PT039H.grib2 2026-05-07 02:57 845K
20260506T18Z_MSC_RDPS_SpecificHumidity_IsbL-0900_RLatLon0.09_PT039H.grib2 2026-05-07 02:57 855K
20260506T18Z_MSC_RDPS_SpecificHumidity_IsbL-0925_RLatLon0.09_PT039H.grib2 2026-05-07 02:57 714K
20260506T18Z_MSC_RDPS_SpecificHumidity_IsbL-0950_RLatLon0.09_PT039H.grib2 2026-05-07 02:57 713K
20260506T18Z_MSC_RDPS_SpecificHumidity_IsbL-0970_RLatLon0.09_PT039H.grib2 2026-05-07 02:57 707K
20260506T18Z_MSC_RDPS_SpecificHumidity_IsbL-0985_RLatLon0.09_PT039H.grib2 2026-05-07 02:57 699K
20260506T18Z_MSC_RDPS_SpecificHumidity_IsbL-1000_RLatLon0.09_PT039H.grib2 2026-05-07 02:57 694K
20260506T18Z_MSC_RDPS_SpecificHumidity_IsbL-1015_RLatLon0.09_PT039H.grib2 2026-05-07 02:57 683K
20260506T18Z_MSC_RDPS_SpecificHumidity_Sfc_RLatLon0.09_PT039H.grib2 2026-05-07 02:57 304K
20260506T18Z_MSC_RDPS_StormRelativeHelicity_EtaL-10000_RLatLon0.09_PT039H.grib2 2026-05-07 02:57 1.1M
20260506T18Z_MSC_RDPS_StormSeverityIndex_EtaL-10000_RLatLon0.09_PT039H.grib2 2026-05-07 02:57 1.2M
20260506T18Z_MSC_RDPS_Thickness_IsbL-0850to0700_RLatLon0.09_PT039H.grib2 2026-05-07 02:57 244K
20260506T18Z_MSC_RDPS_Thickness_IsbL-1000to0500_RLatLon0.09_PT039H.grib2 2026-05-07 02:57 192K
20260506T18Z_MSC_RDPS_Thickness_IsbL-1000to0850_RLatLon0.09_PT039H.grib2 2026-05-07 02:57 258K
20260506T18Z_MSC_RDPS_TotalCloudCover_Sfc_RLatLon0.09_PT039H.grib2 2026-05-07 02:57 678K
20260506T18Z_MSC_RDPS_TotalTotalsIndex_Sfc_RLatLon0.09_PT039H.grib2 2026-05-07 02:57 2.4M
20260506T18Z_MSC_RDPS_UVIndex-ClearSky_Sfc_RLatLon0.09_PT039H.grib2 2026-05-07 02:57 86K
20260506T18Z_MSC_RDPS_UVIndex_Sfc_RLatLon0.09_PT039H.grib2 2026-05-07 02:57 176K
20260506T18Z_MSC_RDPS_UpwardLongwaveRadiationFlux_NTAtm_RLatLon0.09_PT039H.grib2 2026-05-07 02:57 484K
20260506T18Z_MSC_RDPS_UpwardShortwaveRadiationFlux_NTAtm_RLatLon0.09_PT039H.grib2 2026-05-07 02:57 179K
20260506T18Z_MSC_RDPS_VerticalVelocity_IsbL-0250_RLatLon0.09_PT039H.grib2 2026-05-07 02:57 443K
20260506T18Z_MSC_RDPS_VerticalVelocity_IsbL-0500_RLatLon0.09_PT039H.grib2 2026-05-07 02:57 528K
20260506T18Z_MSC_RDPS_VerticalVelocity_IsbL-0700_RLatLon0.09_PT039H.grib2 2026-05-07 02:57 582K
20260506T18Z_MSC_RDPS_VerticalVelocity_IsbL-0850_RLatLon0.09_PT039H.grib2 2026-05-07 02:57 687K
20260506T18Z_MSC_RDPS_VerticalWindShear_EtaL-6500_RLatLon0.09_PT039H.grib2 2026-05-07 02:57 1.2M
20260506T18Z_MSC_RDPS_WindChill_Sfc_RLatLon0.09_PT039H.grib2 2026-05-07 02:57 1.2M
20260506T18Z_MSC_RDPS_WindDir_AGL-10m_RLatLon0.09_PT039H.grib2 2026-05-07 02:57 1.0M
20260506T18Z_MSC_RDPS_WindDir_AGL-120m_RLatLon0.09_PT039H.grib2 2026-05-07 02:57 621K
20260506T18Z_MSC_RDPS_WindDir_AGL-40m_RLatLon0.09_PT039H.grib2 2026-05-07 02:57 658K
20260506T18Z_MSC_RDPS_WindDir_AGL-80m_RLatLon0.09_PT039H.grib2 2026-05-07 02:57 635K
20260506T18Z_MSC_RDPS_WindDir_IsbL-0001_RLatLon0.09_PT039H.grib2 2026-05-07 02:57 318K
20260506T18Z_MSC_RDPS_WindDir_IsbL-0005_RLatLon0.09_PT039H.grib2 2026-05-07 02:57 404K
20260506T18Z_MSC_RDPS_WindDir_IsbL-0010_RLatLon0.09_PT039H.grib2 2026-05-07 02:57 382K
20260506T18Z_MSC_RDPS_WindDir_IsbL-0020_RLatLon0.09_PT039H.grib2 2026-05-07 02:57 406K
20260506T18Z_MSC_RDPS_WindDir_IsbL-0030_RLatLon0.09_PT039H.grib2 2026-05-07 02:57 405K
20260506T18Z_MSC_RDPS_WindDir_IsbL-0050_RLatLon0.09_PT039H.grib2 2026-05-07 02:57 449K
20260506T18Z_MSC_RDPS_WindDir_IsbL-0100_RLatLon0.09_PT039H.grib2 2026-05-07 02:57 424K
20260506T18Z_MSC_RDPS_WindDir_IsbL-0150_RLatLon0.09_PT039H.grib2 2026-05-07 02:57 412K
20260506T18Z_MSC_RDPS_WindDir_IsbL-0175_RLatLon0.09_PT039H.grib2 2026-05-07 02:57 436K
20260506T18Z_MSC_RDPS_WindDir_IsbL-0200_RLatLon0.09_PT039H.grib2 2026-05-07 02:57 455K
20260506T18Z_MSC_RDPS_WindDir_IsbL-0225_RLatLon0.09_PT039H.grib2 2026-05-07 02:57 457K
20260506T18Z_MSC_RDPS_WindDir_IsbL-0250_RLatLon0.09_PT039H.grib2 2026-05-07 02:57 457K
20260506T18Z_MSC_RDPS_WindDir_IsbL-0275_RLatLon0.09_PT039H.grib2 2026-05-07 02:57 469K
20260506T18Z_MSC_RDPS_WindDir_IsbL-0300_RLatLon0.09_PT039H.grib2 2026-05-07 02:57 470K
20260506T18Z_MSC_RDPS_WindDir_IsbL-0350_RLatLon0.09_PT039H.grib2 2026-05-07 02:57 494K
20260506T18Z_MSC_RDPS_WindDir_IsbL-0400_RLatLon0.09_PT039H.grib2 2026-05-07 02:57 515K
20260506T18Z_MSC_RDPS_WindDir_IsbL-0450_RLatLon0.09_PT039H.grib2 2026-05-07 02:57 540K
20260506T18Z_MSC_RDPS_WindDir_IsbL-0500_RLatLon0.09_PT039H.grib2 2026-05-07 02:57 560K
20260506T18Z_MSC_RDPS_WindDir_IsbL-0550_RLatLon0.09_PT039H.grib2 2026-05-07 02:57 572K
20260506T18Z_MSC_RDPS_WindDir_IsbL-0600_RLatLon0.09_PT039H.grib2 2026-05-07 02:57 594K
20260506T18Z_MSC_RDPS_WindDir_IsbL-0650_RLatLon0.09_PT039H.grib2 2026-05-07 02:57 628K
20260506T18Z_MSC_RDPS_WindDir_IsbL-0700_RLatLon0.09_PT039H.grib2 2026-05-07 02:57 669K
20260506T18Z_MSC_RDPS_WindDir_IsbL-0750_RLatLon0.09_PT039H.grib2 2026-05-07 02:57 725K
20260506T18Z_MSC_RDPS_WindDir_IsbL-0800_RLatLon0.09_PT039H.grib2 2026-05-07 02:57 795K
20260506T18Z_MSC_RDPS_WindDir_IsbL-0850_RLatLon0.09_PT039H.grib2 2026-05-07 02:57 873K
20260506T18Z_MSC_RDPS_WindDir_IsbL-0875_RLatLon0.09_PT039H.grib2 2026-05-07 02:57 898K
20260506T18Z_MSC_RDPS_WindDir_IsbL-0900_RLatLon0.09_PT039H.grib2 2026-05-07 02:57 916K
20260506T18Z_MSC_RDPS_WindDir_IsbL-0925_RLatLon0.09_PT039H.grib2 2026-05-07 02:57 928K
20260506T18Z_MSC_RDPS_WindDir_IsbL-0950_RLatLon0.09_PT039H.grib2 2026-05-07 02:57 933K
20260506T18Z_MSC_RDPS_WindDir_IsbL-0970_RLatLon0.09_PT039H.grib2 2026-05-07 02:57 940K
20260506T18Z_MSC_RDPS_WindDir_IsbL-0985_RLatLon0.09_PT039H.grib2 2026-05-07 02:57 948K
20260506T18Z_MSC_RDPS_WindDir_IsbL-1000_RLatLon0.09_PT039H.grib2 2026-05-07 02:57 966K
20260506T18Z_MSC_RDPS_WindDir_IsbL-1015_RLatLon0.09_PT039H.grib2 2026-05-07 02:57 1.0M
20260506T18Z_MSC_RDPS_WindGust-Max_AGL-10m_RLatLon0.09_PT039H.grib2 2026-05-07 02:57 1.0M
20260506T18Z_MSC_RDPS_WindGust-Min_AGL-10m_RLatLon0.09_PT039H.grib2 2026-05-07 02:57 962K
20260506T18Z_MSC_RDPS_WindGust_AGL-10m_RLatLon0.09_PT039H.grib2 2026-05-07 02:57 1.0M
20260506T18Z_MSC_RDPS_WindSpeed_AGL-10m_RLatLon0.09_PT039H.grib2 2026-05-07 02:57 842K
20260506T18Z_MSC_RDPS_WindSpeed_AGL-120m_RLatLon0.09_PT039H.grib2 2026-05-07 02:57 541K
20260506T18Z_MSC_RDPS_WindSpeed_AGL-40m_RLatLon0.09_PT039H.grib2 2026-05-07 02:57 673K
20260506T18Z_MSC_RDPS_WindSpeed_AGL-80m_RLatLon0.09_PT039H.grib2 2026-05-07 02:57 542K
20260506T18Z_MSC_RDPS_WindSpeed_IsbL-0001_RLatLon0.09_PT039H.grib2 2026-05-07 02:57 330K
20260506T18Z_MSC_RDPS_WindSpeed_IsbL-0005_RLatLon0.09_PT039H.grib2 2026-05-07 02:57 296K
20260506T18Z_MSC_RDPS_WindSpeed_IsbL-0010_RLatLon0.09_PT039H.grib2 2026-05-07 02:57 397K
20260506T18Z_MSC_RDPS_WindSpeed_IsbL-0020_RLatLon0.09_PT039H.grib2 2026-05-07 02:57 323K
20260506T18Z_MSC_RDPS_WindSpeed_IsbL-0030_RLatLon0.09_PT039H.grib2 2026-05-07 02:57 318K
20260506T18Z_MSC_RDPS_WindSpeed_IsbL-0050_RLatLon0.09_PT039H.grib2 2026-05-07 02:57 454K
20260506T18Z_MSC_RDPS_WindSpeed_IsbL-0100_RLatLon0.09_PT039H.grib2 2026-05-07 02:57 432K
20260506T18Z_MSC_RDPS_WindSpeed_IsbL-0150_RLatLon0.09_PT039H.grib2 2026-05-07 02:57 370K
20260506T18Z_MSC_RDPS_WindSpeed_IsbL-0175_RLatLon0.09_PT039H.grib2 2026-05-07 02:57 417K
20260506T18Z_MSC_RDPS_WindSpeed_IsbL-0200_RLatLon0.09_PT039H.grib2 2026-05-07 02:57 433K
20260506T18Z_MSC_RDPS_WindSpeed_IsbL-0225_RLatLon0.09_PT039H.grib2 2026-05-07 02:57 437K
20260506T18Z_MSC_RDPS_WindSpeed_IsbL-0250_RLatLon0.09_PT039H.grib2 2026-05-07 02:57 437K
20260506T18Z_MSC_RDPS_WindSpeed_IsbL-0275_RLatLon0.09_PT039H.grib2 2026-05-07 02:57 453K
20260506T18Z_MSC_RDPS_WindSpeed_IsbL-0300_RLatLon0.09_PT039H.grib2 2026-05-07 02:57 451K
20260506T18Z_MSC_RDPS_WindSpeed_IsbL-0350_RLatLon0.09_PT039H.grib2 2026-05-07 02:57 463K
20260506T18Z_MSC_RDPS_WindSpeed_IsbL-0400_RLatLon0.09_PT039H.grib2 2026-05-07 02:57 451K
20260506T18Z_MSC_RDPS_WindSpeed_IsbL-0450_RLatLon0.09_PT039H.grib2 2026-05-07 02:57 571K
20260506T18Z_MSC_RDPS_WindSpeed_IsbL-0500_RLatLon0.09_PT039H.grib2 2026-05-07 02:57 572K
20260506T18Z_MSC_RDPS_WindSpeed_IsbL-0550_RLatLon0.09_PT039H.grib2 2026-05-07 02:57 574K
20260506T18Z_MSC_RDPS_WindSpeed_IsbL-0600_RLatLon0.09_PT039H.grib2 2026-05-07 02:57 625K
20260506T18Z_MSC_RDPS_WindSpeed_IsbL-0650_RLatLon0.09_PT039H.grib2 2026-05-07 02:57 645K
20260506T18Z_MSC_RDPS_WindSpeed_IsbL-0700_RLatLon0.09_PT039H.grib2 2026-05-07 02:57 673K
20260506T18Z_MSC_RDPS_WindSpeed_IsbL-0750_RLatLon0.09_PT039H.grib2 2026-05-07 02:57 704K
20260506T18Z_MSC_RDPS_WindSpeed_IsbL-0800_RLatLon0.09_PT039H.grib2 2026-05-07 02:57 756K
20260506T18Z_MSC_RDPS_WindSpeed_IsbL-0850_RLatLon0.09_PT039H.grib2 2026-05-07 02:57 819K
20260506T18Z_MSC_RDPS_WindSpeed_IsbL-0875_RLatLon0.09_PT039H.grib2 2026-05-07 02:57 839K
20260506T18Z_MSC_RDPS_WindSpeed_IsbL-0900_RLatLon0.09_PT039H.grib2 2026-05-07 02:57 854K
20260506T18Z_MSC_RDPS_WindSpeed_IsbL-0925_RLatLon0.09_PT039H.grib2 2026-05-07 02:57 866K
20260506T18Z_MSC_RDPS_WindSpeed_IsbL-0950_RLatLon0.09_PT039H.grib2 2026-05-07 02:57 869K
20260506T18Z_MSC_RDPS_WindSpeed_IsbL-0970_RLatLon0.09_PT039H.grib2 2026-05-07 02:57 862K
20260506T18Z_MSC_RDPS_WindSpeed_IsbL-0985_RLatLon0.09_PT039H.grib2 2026-05-07 02:57 854K
20260506T18Z_MSC_RDPS_WindSpeed_IsbL-1000_RLatLon0.09_PT039H.grib2 2026-05-07 02:57 849K
20260506T18Z_MSC_RDPS_WindSpeed_IsbL-1015_RLatLon0.09_PT039H.grib2 2026-05-07 02:57 841K
20260506T18Z_MSC_RDPS_WindU_AGL-10m_RLatLon0.09_PT039H.grib2 2026-05-07 02:57 434K
20260506T18Z_MSC_RDPS_WindU_AGL-120m_RLatLon0.09_PT039H.grib2 2026-05-07 02:57 538K
20260506T18Z_MSC_RDPS_WindU_AGL-40m_RLatLon0.09_PT039H.grib2 2026-05-07 02:57 542K
20260506T18Z_MSC_RDPS_WindU_AGL-80m_RLatLon0.09_PT039H.grib2 2026-05-07 02:57 540K
20260506T18Z_MSC_RDPS_WindU_IsbL-0001_RLatLon0.09_PT039H.grib2 2026-05-07 02:57 292K
20260506T18Z_MSC_RDPS_WindU_IsbL-0005_RLatLon0.09_PT039H.grib2 2026-05-07 02:57 287K
20260506T18Z_MSC_RDPS_WindU_IsbL-0010_RLatLon0.09_PT039H.grib2 2026-05-07 02:57 299K
20260506T18Z_MSC_RDPS_WindU_IsbL-0020_RLatLon0.09_PT039H.grib2 2026-05-07 02:57 317K
20260506T18Z_MSC_RDPS_WindU_IsbL-0030_RLatLon0.09_PT039H.grib2 2026-05-07 02:57 353K
20260506T18Z_MSC_RDPS_WindU_IsbL-0050_RLatLon0.09_PT039H.grib2 2026-05-07 02:57 378K
20260506T18Z_MSC_RDPS_WindU_IsbL-0100_RLatLon0.09_PT039H.grib2 2026-05-07 02:57 423K
20260506T18Z_MSC_RDPS_WindU_IsbL-0150_RLatLon0.09_PT039H.grib2 2026-05-07 02:57 387K
20260506T18Z_MSC_RDPS_WindU_IsbL-0175_RLatLon0.09_PT039H.grib2 2026-05-07 02:57 410K
20260506T18Z_MSC_RDPS_WindU_IsbL-0200_RLatLon0.09_PT039H.grib2 2026-05-07 02:57 329K
20260506T18Z_MSC_RDPS_WindU_IsbL-0225_RLatLon0.09_PT039H.grib2 2026-05-07 02:57 331K
20260506T18Z_MSC_RDPS_WindU_IsbL-0250_RLatLon0.09_PT039H.grib2 2026-05-07 02:57 331K
20260506T18Z_MSC_RDPS_WindU_IsbL-0275_RLatLon0.09_PT039H.grib2 2026-05-07 02:57 344K
20260506T18Z_MSC_RDPS_WindU_IsbL-0300_RLatLon0.09_PT039H.grib2 2026-05-07 02:57 340K
20260506T18Z_MSC_RDPS_WindU_IsbL-0350_RLatLon0.09_PT039H.grib2 2026-05-07 02:57 349K
20260506T18Z_MSC_RDPS_WindU_IsbL-0400_RLatLon0.09_PT039H.grib2 2026-05-07 02:57 454K
20260506T18Z_MSC_RDPS_WindU_IsbL-0450_RLatLon0.09_PT039H.grib2 2026-05-07 02:57 459K
20260506T18Z_MSC_RDPS_WindU_IsbL-0500_RLatLon0.09_PT039H.grib2 2026-05-07 02:57 461K
20260506T18Z_MSC_RDPS_WindU_IsbL-0550_RLatLon0.09_PT039H.grib2 2026-05-07 02:57 464K
20260506T18Z_MSC_RDPS_WindU_IsbL-0600_RLatLon0.09_PT039H.grib2 2026-05-07 02:57 455K
20260506T18Z_MSC_RDPS_WindU_IsbL-0650_RLatLon0.09_PT039H.grib2 2026-05-07 02:57 473K
20260506T18Z_MSC_RDPS_WindU_IsbL-0700_RLatLon0.09_PT039H.grib2 2026-05-07 02:57 497K
20260506T18Z_MSC_RDPS_WindU_IsbL-0750_RLatLon0.09_PT039H.grib2 2026-05-07 02:57 651K
20260506T18Z_MSC_RDPS_WindU_IsbL-0800_RLatLon0.09_PT039H.grib2 2026-05-07 02:57 700K
20260506T18Z_MSC_RDPS_WindU_IsbL-0850_RLatLon0.09_PT039H.grib2 2026-05-07 02:57 761K
20260506T18Z_MSC_RDPS_WindU_IsbL-0875_RLatLon0.09_PT039H.grib2 2026-05-07 02:57 643K
20260506T18Z_MSC_RDPS_WindU_IsbL-0900_RLatLon0.09_PT039H.grib2 2026-05-07 02:57 655K
20260506T18Z_MSC_RDPS_WindU_IsbL-0925_RLatLon0.09_PT039H.grib2 2026-05-07 02:57 664K
20260506T18Z_MSC_RDPS_WindU_IsbL-0950_RLatLon0.09_PT039H.grib2 2026-05-07 02:57 663K
20260506T18Z_MSC_RDPS_WindU_IsbL-0970_RLatLon0.09_PT039H.grib2 2026-05-07 02:57 658K
20260506T18Z_MSC_RDPS_WindU_IsbL-0985_RLatLon0.09_PT039H.grib2 2026-05-07 02:57 653K
20260506T18Z_MSC_RDPS_WindU_IsbL-1000_RLatLon0.09_PT039H.grib2 2026-05-07 02:57 789K
20260506T18Z_MSC_RDPS_WindU_IsbL-1015_RLatLon0.09_PT039H.grib2 2026-05-07 02:57 830K
20260506T18Z_MSC_RDPS_WindV_AGL-10m_RLatLon0.09_PT039H.grib2 2026-05-07 02:57 429K
20260506T18Z_MSC_RDPS_WindV_AGL-120m_RLatLon0.09_PT039H.grib2 2026-05-07 02:57 534K
20260506T18Z_MSC_RDPS_WindV_AGL-40m_RLatLon0.09_PT039H.grib2 2026-05-07 02:57 537K
20260506T18Z_MSC_RDPS_WindV_AGL-80m_RLatLon0.09_PT039H.grib2 2026-05-07 02:57 536K
20260506T18Z_MSC_RDPS_WindV_IsbL-0001_RLatLon0.09_PT039H.grib2 2026-05-07 02:57 245K
20260506T18Z_MSC_RDPS_WindV_IsbL-0005_RLatLon0.09_PT039H.grib2 2026-05-07 02:57 287K
20260506T18Z_MSC_RDPS_WindV_IsbL-0010_RLatLon0.09_PT039H.grib2 2026-05-07 02:57 299K
20260506T18Z_MSC_RDPS_WindV_IsbL-0020_RLatLon0.09_PT039H.grib2 2026-05-07 02:57 317K
20260506T18Z_MSC_RDPS_WindV_IsbL-0030_RLatLon0.09_PT039H.grib2 2026-05-07 02:57 314K
20260506T18Z_MSC_RDPS_WindV_IsbL-0050_RLatLon0.09_PT039H.grib2 2026-05-07 02:57 343K
20260506T18Z_MSC_RDPS_WindV_IsbL-0100_RLatLon0.09_PT039H.grib2 2026-05-07 02:57 423K
20260506T18Z_MSC_RDPS_WindV_IsbL-0150_RLatLon0.09_PT039H.grib2 2026-05-07 02:57 386K
20260506T18Z_MSC_RDPS_WindV_IsbL-0175_RLatLon0.09_PT039H.grib2 2026-05-07 02:57 409K
20260506T18Z_MSC_RDPS_WindV_IsbL-0200_RLatLon0.09_PT039H.grib2 2026-05-07 02:57 330K
20260506T18Z_MSC_RDPS_WindV_IsbL-0225_RLatLon0.09_PT039H.grib2 2026-05-07 02:57 359K
20260506T18Z_MSC_RDPS_WindV_IsbL-0250_RLatLon0.09_PT039H.grib2 2026-05-07 02:57 358K
20260506T18Z_MSC_RDPS_WindV_IsbL-0275_RLatLon0.09_PT039H.grib2 2026-05-07 02:57 368K
20260506T18Z_MSC_RDPS_WindV_IsbL-0300_RLatLon0.09_PT039H.grib2 2026-05-07 02:57 365K
20260506T18Z_MSC_RDPS_WindV_IsbL-0350_RLatLon0.09_PT039H.grib2 2026-05-07 02:57 348K
20260506T18Z_MSC_RDPS_WindV_IsbL-0400_RLatLon0.09_PT039H.grib2 2026-05-07 02:57 353K
20260506T18Z_MSC_RDPS_WindV_IsbL-0450_RLatLon0.09_PT039H.grib2 2026-05-07 02:57 456K
20260506T18Z_MSC_RDPS_WindV_IsbL-0500_RLatLon0.09_PT039H.grib2 2026-05-07 02:57 459K
20260506T18Z_MSC_RDPS_WindV_IsbL-0550_RLatLon0.09_PT039H.grib2 2026-05-07 02:57 461K
20260506T18Z_MSC_RDPS_WindV_IsbL-0600_RLatLon0.09_PT039H.grib2 2026-05-07 02:57 469K
20260506T18Z_MSC_RDPS_WindV_IsbL-0650_RLatLon0.09_PT039H.grib2 2026-05-07 02:57 486K
20260506T18Z_MSC_RDPS_WindV_IsbL-0700_RLatLon0.09_PT039H.grib2 2026-05-07 02:57 508K
20260506T18Z_MSC_RDPS_WindV_IsbL-0750_RLatLon0.09_PT039H.grib2 2026-05-07 02:57 521K
20260506T18Z_MSC_RDPS_WindV_IsbL-0800_RLatLon0.09_PT039H.grib2 2026-05-07 02:57 566K
20260506T18Z_MSC_RDPS_WindV_IsbL-0850_RLatLon0.09_PT039H.grib2 2026-05-07 02:57 622K
20260506T18Z_MSC_RDPS_WindV_IsbL-0875_RLatLon0.09_PT039H.grib2 2026-05-07 02:57 641K
20260506T18Z_MSC_RDPS_WindV_IsbL-0900_RLatLon0.09_PT039H.grib2 2026-05-07 02:57 653K
20260506T18Z_MSC_RDPS_WindV_IsbL-0925_RLatLon0.09_PT039H.grib2 2026-05-07 02:57 661K
20260506T18Z_MSC_RDPS_WindV_IsbL-0950_RLatLon0.09_PT039H.grib2 2026-05-07 02:57 660K
20260506T18Z_MSC_RDPS_WindV_IsbL-0970_RLatLon0.09_PT039H.grib2 2026-05-07 02:57 797K
20260506T18Z_MSC_RDPS_WindV_IsbL-0985_RLatLon0.09_PT039H.grib2 2026-05-07 02:57 788K
20260506T18Z_MSC_RDPS_WindV_IsbL-1000_RLatLon0.09_PT039H.grib2 2026-05-07 02:57 830K
20260506T18Z_MSC_RDPS_WindV_IsbL-1015_RLatLon0.09_PT039H.grib2 2026-05-07 02:57 823K